When you browse on this site, cookies collect data to enhance your experience and personalize the content and advertising you see.
Visit our Privacy Policy to learn more. By continuing to use the site, you agree to this use of cookies and data.
  • In Romania
  • List of Countries
  • For 7 days
  • Water Temperature
  • Weather Map
  • Weather Widgets
  • user-avatar
    Login

    Hourly Weather Finevo

    Today, 19 September, Thursday

    Time Temperature Precipitation Wind Pressure Humidity
    00:00 +5°C° 0 mm 2 mps 736 mmHg 98%
    01:00 +5°C° 0 mm 2 mps 737 mmHg 98%
    02:00 +5°C° 0 mm 2 mps 737 mmHg 98%
    03:00 +5°C° 0 mm 2 mps 737 mmHg 98%
    04:00 +5°C° 0 mm 2 mps 738 mmHg 97%
    05:00 +4°C° 0 mm 2 mps 738 mmHg 96%
    06:00 +5°C° 0 mm 2 mps 739 mmHg 94%
    07:00 +5°C° 0 mm 2 mps 739 mmHg 92%
    08:00 +5°C° 0 mm 2 mps 740 mmHg 92%
    09:00 +6°C° 0 mm 2 mps 740 mmHg 88%
    10:00 +7°C° 0 mm 2 mps 740 mmHg 83%
    11:00 +7°C° 0 mm 2 mps 741 mmHg 79%
    12:00 +8°C° 0.1 mm 2 mps 741 mmHg 76%
    13:00 +8°C° 0.1 mm 2 mps 741 mmHg 74%
    14:00 +9°C° 0.1 mm 2 mps 741 mmHg 71%
    15:00 +8°C° 0.2 mm 2 mps 741 mmHg 75%
    16:00 +8°C° 0.2 mm 2 mps 741 mmHg 80%
    17:00 +7°C° 0.2 mm 2 mps 742 mmHg 84%
    18:00 +7°C° 0 mm 1 mps 742 mmHg 87%
    19:00 +6°C° 0 mm 1 mps 742 mmHg 91%
    20:00 +4°C° 0 mm 1 mps 742 mmHg 94%
    21:00 +4°C° 0 mm 1 mps 742 mmHg 95%
    22:00 +3°C° 0 mm 1 mps 742 mmHg 95%
    23:00 +3°C° 0 mm 1 mps 742 mmHg 96%

    Tomorrow, 20 September, Friday

    Time Temperature Precipitation Wind Pressure Humidity
    00:00 +3°C° 0 mm 1 mps 742 mmHg 96%
    01:00 +2°C° 0 mm 1 mps 742 mmHg 96%
    02:00 +2°C° 0 mm 1 mps 742 mmHg 96%
    03:00 +2°C° 0 mm 1 mps 742 mmHg 96%
    04:00 +2°C° 0 mm 1 mps 742 mmHg 96%
    05:00 +1°C° 0 mm 1 mps 742 mmHg 96%
    06:00 +2°C° 0 mm 1 mps 742 mmHg 93%
    07:00 +3°C° 0 mm 1 mps 742 mmHg 91%
    08:00 +5°C° 0 mm 1 mps 742 mmHg 88%
    09:00 +5°C° 0.1 mm 2 mps 742 mmHg 84%
    10:00 +6°C° 0.1 mm 2 mps 742 mmHg 81%
    11:00 +7°C° 0.1 mm 3 mps 742 mmHg 78%
    12:00 +7°C° 0.2 mm 3 mps 743 mmHg 76%
    13:00 +7°C° 0.2 mm 3 mps 743 mmHg 74%
    14:00 +7°C° 0.2 mm 3 mps 743 mmHg 72%
    15:00 +7°C° 0.1 mm 3 mps 743 mmHg 73%
    16:00 +6°C° 0.1 mm 2 mps 743 mmHg 74%
    17:00 +6°C° 0.1 mm 2 mps 743 mmHg 75%
    18:00 +5°C° 0 mm 2 mps 743 mmHg 80%
    19:00 +4°C° 0 mm 1 mps 743 mmHg 85%
    20:00 +3°C° 0 mm 1 mps 744 mmHg 90%
    21:00 +2°C° 0 mm 1 mps 743 mmHg 91%
    22:00 +2°C° 0 mm 1 mps 743 mmHg 92%
    23:00 +2°C° 0 mm 1 mps 743 mmHg 93%

    Day after tomorrow, 21 September, Saturday

    Time Temperature Precipitation Wind Pressure Humidity
    00:00 +1°C° 0 mm 1 mps 743 mmHg 92%
    01:00 +1°C° 0 mm 1 mps 743 mmHg 92%
    02:00 +1°C° 0 mm 1 mps 743 mmHg 91%
    03:00 +1°C° 0 mm 2 mps 743 mmHg 90%
    04:00 +1°C° 0 mm 2 mps 743 mmHg 89%
    05:00 +2°C° 0 mm 2 mps 742 mmHg 87%
    06:00 +2°C° 0.2 mm 2 mps 742 mmHg 88%
    07:00 +3°C° 0.2 mm 2 mps 742 mmHg 88%
    08:00 +4°C° 0.2 mm 2 mps 742 mmHg 89%
    09:00 +4°C° 0 mm 2 mps 741 mmHg 87%
    10:00 +5°C° 0 mm 2 mps 741 mmHg 85%
    11:00 +6°C° 0 mm 2 mps 740 mmHg 83%
    12:00 +6°C° 0.1 mm 2 mps 740 mmHg 87%
    13:00 +6°C° 0.1 mm 2 mps 740 mmHg 90%
    14:00 +5°C° 0.1 mm 2 mps 739 mmHg 94%
    15:00 +5°C° 0.3 mm 2 mps 739 mmHg 95%
    16:00 +5°C° 0.3 mm 2 mps 738 mmHg 96%
    17:00 +5°C° 0.3 mm 2 mps 738 mmHg 97%
    18:00 +6°C° 0 mm 1 mps 738 mmHg 98%
    19:00 +6°C° 0 mm 1 mps 738 mmHg 98%
    20:00 +6°C° 0 mm 1 mps 737 mmHg 99%
    21:00 +6°C° 0 mm 1 mps 737 mmHg 99%
    22:00 +6°C° 0 mm 1 mps 736 mmHg 99%
    23:00 +6°C° 0 mm 1 mps 736 mmHg 99%

    22 September, Sunday

    Time Temperature Precipitation Wind Pressure Humidity
    00:00 +6°C° 0.1 mm 1 mps 736 mmHg 99%
    01:00 +6°C° 0.1 mm 1 mps 735 mmHg 99%
    02:00 +6°C° 0.1 mm 1 mps 735 mmHg 99%
    03:00 +6°C° 0.2 mm 2 mps 735 mmHg 97%
    04:00 +5°C° 0.2 mm 3 mps 735 mmHg 96%
    05:00 +5°C° 0.2 mm 5 mps 735 mmHg 94%
    06:00 +5°C° 0.3 mm 5 mps 736 mmHg 92%
    07:00 +3°C° 0.3 mm 5 mps 736 mmHg 90%
    08:00 +2°C° 0.3 mm 5 mps 737 mmHg 88%
    09:00 +3°C° 0.1 mm 5 mps 738 mmHg 82%
    10:00 +4°C° 0.1 mm 6 mps 739 mmHg 76%
    11:00 +5°C° 0.1 mm 6 mps 740 mmHg 69%
    12:00 +5°C° 0.2 mm 6 mps 740 mmHg 66%
    13:00 +5°C° 0.2 mm 6 mps 741 mmHg 63%
    14:00 +7°C° 0.2 mm 6 mps 742 mmHg 61%
    15:00 +6°C° 0.1 mm 5 mps 742 mmHg 63%
    16:00 +5°C° 0.1 mm 4 mps 742 mmHg 65%
    17:00 +5°C° 0.1 mm 3 mps 743 mmHg 67%
    18:00 +4°C° 0 mm 3 mps 743 mmHg 71%
    19:00 +3°C° 0 mm 2 mps 744 mmHg 76%
    20:00 +2°C° 0 mm 2 mps 744 mmHg 81%
    21:00 +1°C° 0 mm 2 mps 745 mmHg 84%
    22:00 +1°C° 0 mm 2 mps 745 mmHg 86%
    23:00 -1°C° 0 mm 2 mps 745 mmHg 89%

    23 September, Monday

    Time Temperature Precipitation Wind Pressure Humidity
    00:00 -1°C° 0 mm 2 mps 745 mmHg 91%
    01:00 -1°C° 0 mm 2 mps 746 mmHg 93%
    02:00 -1°C° 0 mm 2 mps 746 mmHg 95%
    03:00 -1°C° 0 mm 2 mps 746 mmHg 94%
    04:00 -1°C° 0 mm 2 mps 746 mmHg 94%
    05:00 -1°C° 0 mm 2 mps 746 mmHg 93%
    06:00 +1°C° 0 mm 2 mps 746 mmHg 88%
    07:00 +2°C° 0 mm 2 mps 746 mmHg 82%
    08:00 +3°C° 0 mm 2 mps 746 mmHg 77%
    09:00 +4°C° 0 mm 2 mps 746 mmHg 70%
    10:00 +6°C° 0 mm 2 mps 746 mmHg 64%
    11:00 +7°C° 0 mm 2 mps 746 mmHg 57%
    12:00 +7°C° 0 mm 2 mps 746 mmHg 57%
    13:00 +7°C° 0 mm 3 mps 745 mmHg 57%
    14:00 +8°C° 0 mm 3 mps 745 mmHg 58%
    15:00 +7°C° 0 mm 2 mps 745 mmHg 63%
    16:00 +6°C° 0 mm 2 mps 745 mmHg 68%
    17:00 +7°C° 0 mm 1 mps 745 mmHg 74%
    18:00 +6°C° 0 mm 1 mps 745 mmHg 76%
    19:00 +5°C° 0 mm 1 mps 745 mmHg 79%
    20:00 +4°C° 0 mm 1 mps 745 mmHg 82%
    21:00 +4°C° 0 mm 1 mps 744 mmHg 84%
    22:00 +4°C° 0 mm 1 mps 744 mmHg 85%
    23:00 +2°C° 0 mm 0 mps 744 mmHg 86%

    24 September, Tuesday

    Time Temperature Precipitation Wind Pressure Humidity
    00:00 +2°C° 0 mm 0 mps 744 mmHg 86%
    01:00 +2°C° 0 mm 0 mps 744 mmHg 87%
    02:00 +2°C° 0 mm 0 mps 744 mmHg 87%
    03:00 +2°C° 0 mm 0 mps 744 mmHg 89%
    04:00 +1°C° 0 mm 0 mps 744 mmHg 90%
    05:00 0°C° 0 mm 0 mps 744 mmHg 92%
    06:00 +2°C° 0 mm 1 mps 744 mmHg 85%
    07:00 +4°C° 0 mm 1 mps 744 mmHg 79%
    08:00 +5°C° 0 mm 1 mps 744 mmHg 72%
    09:00 +6°C° 0 mm 1 mps 744 mmHg 64%
    10:00 +7°C° 0 mm 1 mps 744 mmHg 57%
    11:00 +8°C° 0 mm 2 mps 744 mmHg 49%
    12:00 +8°C° 0 mm 2 mps 744 mmHg 48%
    13:00 +8°C° 0 mm 2 mps 744 mmHg 46%
    14:00 +9°C° 0 mm 2 mps 743 mmHg 45%
    15:00 +9°C° 0 mm 1 mps 743 mmHg 51%
    16:00 +8°C° 0 mm 1 mps 743 mmHg 58%
    17:00 +7°C° 0 mm 1 mps 743 mmHg 64%
    18:00 +5°C° 0 mm 1 mps 743 mmHg 70%
    19:00 +3°C° 0 mm 2 mps 744 mmHg 76%
    20:00 +1°C° 0 mm 2 mps 744 mmHg 82%
    21:00 +1°C° 0 mm 2 mps 744 mmHg 84%
    22:00 +2°C° 0 mm 1 mps 744 mmHg 87%
    23:00 +1°C° 0 mm 1 mps 744 mmHg 89%
    Show more